Weather in Ishgl

Austria     46°59′18″N   10°14′26″E
temp.,
°C
wind,
m/s
gust,
m/s
humid.,
%
clouds,
%
prec.,
mm/h
press.,
hPa
HPBL,
m
4 march, thu
thu401:00−6wsw113788 0.0 102821
04:00−7wsw114046 0.0 102621
07:00−7w114572 0.0 102521
10:00−1wnw1159100 0.0 102392
13:00−1wnw1177100 0.0 1020237
16:00−1wnw227557 0.0 1019385
19:00−6ssw228276 0.0 101921
22:00−7w2274100 0.0 102021
5 march, fri
fri501:00−6wsw1295100 3.2 102029
04:00−7wnw119877 2.3 101823
07:00−6nw129787 5.3 101927
10:00−4wnw229176 0.7 1019291
13:00−3nnw229575 1.7 1019388
16:00−4nw229290 0.6 1019365
19:00−7nnw229895 1.2 102225
22:00−11n119997 0.3 102521
6 march, sat
sat601:00−14ese119988 0.4 102721
04:00−14se119961 0.0 102835
07:00−15se228949 0.1 102921
10:00−6se21640 0.0 1028137
13:00−4sse12570 0.0 1027509
16:00−3nw11718 0.0 1026438
19:00−10se019418 0.0 102821
22:00−10ssw23870 0.0 102921
7 march, sun
sun701:00−11ssw33833 0.0 102921
04:00−12ssw22710 0.0 102821
07:00−12sw11660 0.0 102721
10:00−5nnw11660 0.0 1025185
13:00−3nnw21894 0.0 1022468
16:00−3nw218581 0.1 1020407
19:00−10w119952 0.1 102121
22:00−10ssw119529 0.0 102221
8 march, mon
mon801:00−11wsw118934 0.0 102121
04:00−11w119392 0.0 102021
07:00−12wnw019992 0.1 102021
10:00−6nnw2191100 0.1 1019239
13:00−5nnw2291100 0.6 1018398
16:00−5nnw2291100 0.8 1017378
19:00−8nnw2299100 1.1 101923
22:00−9nnw1198100 0.3 102021